Regional Weather Roundup
Issued by NWS San Angelo, TX

Home | Current Version | Previous Version | Graphics & Text | Print | Product List | Glossary Off
Versions: 1 2 3 4 5 6 7 8 9 10 11 12 13 14 15 16 17 18 19 20 21 22 23 24 25 26 27 28 29 30 31 32 33 34 35 36 37 38 39 40 41 42 43 44 45 46 47 48 49 50

000
ASUS44 KSJT 250811
RWRSJT
WEST CENTRAL TEXAS REGIONAL WEATHER ROUNDUP
NATIONAL WEATHER SERVICE SAN ANGELO TX
300 AM CDT SAT JUN 25 2016

NOTE: "FAIR" INDICATES FEW OR NO CLOUDS BELOW 12,000 FEET WITH NO
SIGNIFICANT WEATHER AND/OR OBSTRUCTIONS TO VISIBILITY.

TXZ049-054-064>066-071>073-076>078-098-099-113-114-127-128-139-140-
154-155-168>170-250900
...LOCATIONS ACROSS WEST CENTRAL TEXAS...

CITY           SKY/WX    TMP DP  RH WIND       PRES   REMARKS
SAN ANGELO     PTCLDY    73  65  75 SE3       30.00S
ABILENE        CLOUDY    76  69  79 S9        30.01F
DYESS AFB      CLOUDY    75  69  80 SE8       30.00S
JUNCTION       PTCLDY    77  67  71 SE8       30.02F
SWEETWATER     MOCLDY    73  62  68 SE8       30.05S
BROWNWOOD      CLOUDY    75  70  83 SE7       30.02S
COLEMAN        CLOUDY    76  69  78 S8        30.03S
SONORA         CLEAR     77  66  69 SE9       30.05F
OZONA          FAIR      77  64  65 S10       30.04S
BRADY          NOT AVBL
$$

TEXAS PANHANDLE/OKLAHOMA PANHANDLE

CITY           SKY/WX    TMP DP  RH WIND       PRES   REMARKS
AMARILLO       PTCLDY    75  58  55 S21       30.03S
BORGER         CLOUDY    78  59  51 S8G17     29.99S
CANADIAN       CLEAR     76  64  66 SW13G20   29.96R
DALHART        MOCLDY    73  56  54 S12       30.03S
DUMAS          CLOUDY    74  56  54 S14       30.02S
GUYMON         NOT AVBL
HEREFORD       CLOUDY    75  59  58 S12       30.05S
PAMPA          SUNNY     74  62  64 S16G22    30.01F
PERRYTON       PTCLDY    76  63  62 S14       29.98S
$$

SOUTHERN PANHANDLE/SOUTH PLAINS/ROLLING PLAINS

CITY           SKY/WX    TMP DP  RH WIND       PRES   REMARKS
LUBBOCK        PTCLDY    75  57  53 S17       30.03S
SNYDER           N/A     71  62  71 S8        30.02F
CHILDRESS      CLEAR     74  63  68 S10       29.96F
SEMINOLE       SUNNY     74  59  58 S9        30.05F
$$

PERMIAN BASIN

CITY           SKY/WX    TMP DP  RH WIND       PRES   REMARKS
MIDLAND        CLOUDY    76  60  57 SE13      30.01F
ODESSA         CLEAR     76  60  57 SE12      30.02F
WINK           CLEAR     76  60  57 SE12      29.97F
$$

FAR WEST/SOUTHWEST MOUNTAINS/TRANS PECOS

CITY           SKY/WX    TMP DP  RH WIND       PRES   REMARKS
ALPINE         SUNNY     73  55  53 S10       30.13F
DRYDEN           N/A     79  65  62 E16       29.96F
EL PASO        CLOUDY    79  55  43 NW6       30.05S
FORT STOCKTON  CLEAR     76  59  55 SE13G22   29.99S
GUADALUPE PASS CLEAR     70  53  54 E10         N/A
MARFA          CLEAR    N/A N/A N/A NW5       30.14R
PECOS          SUNNY     77  61  57 E9        29.97S
$$

DALLAS/FORT WORTH METROPLEX

CITY           SKY/WX    TMP DP  RH WIND       PRES   REMARKS
DFW AIRPORT    PTCLDY    82  70  66 S13       29.98S
FTW MEACHAM    CLEAR     81  69  67 S9        29.98F
DAL-EXECUTIVE  CLEAR     79  70  74 S8        29.99S
GRAND PRAIRIE  CLEAR     81  69  68 S8        30.00F
ADDISON        CLEAR     82  73  72 S9G17     30.01S
MESQUITE       SUNNY     76  73  89 S7        30.00S
LANCASTER      SUNNY     79  71  76 S6        30.01S
$$

NORTH CENTRAL TEXAS

CITY           SKY/WX    TMP DP  RH WIND       PRES   REMARKS
SHRMAN/DENISON SUNNY     78  71  78 SE9       30.01R
GAINESVILLE    CLEAR     74  69  83 CALM      30.01S
BRIDGEPORT     SUNNY     78  70  77 S5        30.00S
DENTON         CLEAR     76  69  79 S8        29.99S
WAXAHACHIE     SUNNY     75  72  88 S6        30.02S
GRANBURY       MOSUNNY   79  70  74 SE6       30.01S
$$

WESTERN NORTH TEXAS

CITY           SKY/WX    TMP DP  RH WIND       PRES   REMARKS
WICHITA FALLS  CLEAR     75  67  76 S8        29.97S
VERNON         SUNNY     76  61  58 S7        29.97R
BRECKENRIDGE   SUNNY     78  68  70 S9G17     29.98S
COMANCHE       CLOUDY    75  70  85 S8        30.02F
$$

CENTRAL AND SOUTH CENTRAL TEXAS

CITY           SKY/WX    TMP DP  RH WIND       PRES   REMARKS
AUSTIN/BERGSTM CLOUDY    76  73  91 CALM      30.02S
WACO           CLEAR     79  72  79 S14       30.01R
HILLSBORO      SUNNY     77  72  83 S9        30.01S
TEMPLE         NOT AVBL
KILLEEN-GRAY   CLEAR     76  72  87 S7        30.02S
FORT HOOD      CLEAR     75  71  87 S8        30.01R
GEORGETOWN     MOCLDY    79  72  78 S8        30.02S
LAGO VISTA     CLOUDY    77  73  88 S7        30.04F
SAN MARCOS     CLOUDY    77  75  94 CALM      30.03S
NEW BRAUNFELS  CLOUDY    78  74  87 SE5       30.01S
RANDOLPH AFB   CLOUDY    77  77 100 E3        30.01F
SAN ANTONIO    CLOUDY    78  73  84 SE10      30.02F
STINSON        MOCLDY    79  73  82 SE5       29.99S
PLEASANTON     NOT AVBL
LA GRANGE        N/A     77  76  95 CALM      30.01R
GIDDINGS       MOSUNNY   75  73  93 CALM      30.07R
$$

EAST TEXAS

CITY           SKY/WX    TMP DP  RH WIND       PRES   REMARKS
PARIS          CLEAR     73  63  68 S7        30.01F
CLARKSVILLE    NOT AVBL
TYLER          CLEAR     77  72  84 S7        30.03R
LONGVIEW       PTCLDY    76  74  93 S8        30.02R
PALESTINE      SUNNY     78  74  88 S6        30.04R
NACOGDOCHES    CLEAR     77  72  83 S6        30.03S
$$

TEXAS HILL COUNTRY AND EDWARDS PLATEAU

CITY           SKY/WX    TMP DP  RH WIND       PRES   REMARKS
LLANO          SUNNY     77  75  94 SE5       30.05S
HORSESHOE BAY  CLOUDY    76  72  85 CALM      30.03S
KERRVILLE      PTCLDY    74  71  89 SE12      30.05F
FREDERICKSBRG  PTCLDY    74  69  83 SE5       30.05F
ROCKSPRINGS    PTSUNNY   75  68  78 SE9G20    30.06F
HONDO          CLOUDY    76  70  82 E7        30.02F
UVALDE         MOSUNNY   75  69  82 CALM      29.99S
DEL RIO        PTCLDY    82  71  69 SE13      29.94S
$$

SOUTHEAST TEXAS

CITY           SKY/WX    TMP DP  RH WIND       PRES   REMARKS
COLLEGE STN    MOCLDY    79  75  87 S7        30.02S
CALDWELL       MOSUNNY   75  75 100 SE5       30.05S
CROCKETT       SUNNY     75  73  94 S5        30.06S
BRENHAM        PTCLDY    78  76  94 CALM      30.03S
HUNTSVILLE     CLEAR     79  74  84 S3        30.03F
CONROE         CLEAR     75  73  93 CALM      30.04R
HOUSTON BUSH   PTCLDY    79  75  87 CALM      30.02S
HOUSTON HOBBY  MOCLDY    80  75  84 CALM      30.02R
PERLAND        PTCLDY    81  76  84 CALM      30.03S
WHARTON        MOSUNNY   76  74  94 CALM      30.02S
$$

THE UPPER TEXAS COAST

CITY           SKY/WX    TMP DP  RH WIND       PRES   REMARKS
ORANGE         SUNNY     76  73  91 CALM      30.05R
PORT ARTHUR    CLEAR     77  75  93 S3        30.03R
GALVESTON      LGT RAIN  83  77  82 S14       30.03S
ANGLETON       PTCLDY    81  76  84 S7        30.02R
BAY CITY       MOSUNNY   79  76  91 CALM      30.01S
$$

TEXAS COASTAL BEND, RIO GRANDE PLAINS DEEP SOUTH TEXAS

CITY           SKY/WX    TMP DP  RH WIND       PRES   REMARKS
VICTORIA       MOCLDY    78  75  90 SE6       30.00S
BEEVILLE       FAIR      80  79  99 S6        29.98F
ROCKPORT       CLOUDY    84  74  71 S8G20     29.98S
PORT ARANSAS   CLOUDY    83  78  85 S13G18    29.97F
PORT LAVACA    CLOUDY    80  77  91 CALM      30.00S
CORPUS CHRISTI MOCLDY    82  77  84 S7        29.97F
KINGSVILLE NAS CLOUDY    80  79  96 SE7       29.96F
COTULLA        CLOUDY    81  72  74 SE7       29.96F
LAREDO         CLOUDY    81  72  74 SE14      29.95F
BROWNSVILLE    CLOUDY    82  76  81 SE13      29.96F
PORT ISABEL    CLOUDY    83  77  82 SE12      29.95F
HEBBRONVILLE   MOSUNNY   77  73  90 SE6       29.98F
MCALLEN        CLOUDY    82  76  81 SE6       29.96F
WESLACO        MOCLDY    81  37  20 SE9       29.95F
FALFURRIAS     CLOUDY    79  75  85 SE5       29.96S
EDINBURG       CLOUDY    82  76  82 SE5       29.96F
$$




USA.gov is the U.S. government's official web portal to all federal, state and local government web resources and services.